TimeICT,TemperatureF,Dew PointF,Humidity,Sea Level PressureIn,VisibilityMPH,Wind Direction,Wind SpeedMPH,Gust SpeedMPH,PrecipitationIn,Events,Conditions,WindDirDegrees,DateUTC
12:00 AM,80.6,77.0,89,29.86,6.2,Calm,Calm,-,N/A,,Mostly Cloudy,0,2012-10-09 17:00:00
12:30 AM,80.6,77.0,89,29.86,6.2,Calm,Calm,-,N/A,,Mostly Cloudy,0,2012-10-09 17:30:00
1:00 AM,80,77,89,29.85,6,Calm,Calm,,,,Scattered Clouds,,2012-10-09 18:00:00
1:00 AM,80.6,77.0,89,29.83,6.2,Calm,Calm,-,N/A,,Mostly Cloudy,0,2012-10-09 18:00:00
1:30 AM,80.6,77.0,89,29.83,6.2,Calm,Calm,-,N/A,,Mostly Cloudy,0,2012-10-09 18:30:00
2:00 AM,80.6,77.0,89,29.83,6.2,Calm,Calm,-,N/A,,Mostly Cloudy,0,2012-10-09 19:00:00
2:30 AM,80.6,77.0,89,29.83,6.2,Calm,Calm,-,N/A,,Mostly Cloudy,0,2012-10-09 19:30:00
3:00 AM,80.6,77.0,89,29.83,6.2,Calm,Calm,-,N/A,,Mostly Cloudy,0,2012-10-09 20:00:00
3:30 AM,78.8,75.2,89,29.83,6.2,WSW,5.8,-,N/A,,Mostly Cloudy,250,2012-10-09 20:30:00
4:00 AM,78.8,75.2,89,29.83,6.2,WSW,4.6,-,N/A,,Mostly Cloudy,240,2012-10-09 21:00:00
4:30 AM,78.8,75.2,89,29.83,6.2,Calm,Calm,-,N/A,,Mostly Cloudy,0,2012-10-09 21:30:00
5:00 AM,78.8,75.2,89,29.83,6.2,Calm,Calm,-,N/A,,Mostly Cloudy,0,2012-10-09 22:00:00
5:30 AM,77.0,75.2,94,29.86,6.2,WNW,4.6,-,N/A,,Mostly Cloudy,300,2012-10-09 22:30:00
6:00 AM,77.0,75.2,94,29.86,5.6,Calm,Calm,-,N/A,,Mostly Cloudy,0,2012-10-09 23:00:00
6:30 AM,77.0,75.2,94,29.86,5.6,Calm,Calm,-,N/A,,Mostly Cloudy,0,2012-10-09 23:30:00
7:00 AM,78,75,88,29.87,6,Calm,Calm,,,,Mist,,2012-10-10 00:00:00
7:00 AM,78.8,75.2,89,29.86,5.6,Calm,Calm,-,N/A,,Mostly Cloudy,0,2012-10-10 00:00:00
7:30 AM,78.8,75.2,89,29.89,6.2,Calm,Calm,-,N/A,,Mostly Cloudy,0,2012-10-10 00:30:00
8:00 AM,78.8,75.2,89,29.89,6.2,Calm,Calm,-,N/A,,Mostly Cloudy,0,2012-10-10 01:00:00
8:30 AM,80.6,75.2,84,29.89,6.2,ENE,3.5,-,N/A,,Mostly Cloudy,60,2012-10-10 01:30:00
9:00 AM,82.4,73.4,74,29.89,6.2,ENE,4.6,-,N/A,,Mostly Cloudy,60,2012-10-10 02:00:00
9:30 AM,82.4,73.4,74,29.92,6.2,NNE,3.5,-,N/A,,Mostly Cloudy,20,2012-10-10 02:30:00
10:00 AM,84.2,71.6,66,29.92,6.2,Calm,Calm,-,N/A,,Mostly Cloudy,0,2012-10-10 03:00:00
10:30 AM,86.0,71.6,62,29.89,6.2,NNE,3.5,-,N/A,,Mostly Cloudy,20,2012-10-10 03:30:00
11:00 AM,86.0,73.4,66,29.89,6.2,NNW,2.3,-,N/A,,Mostly Cloudy,330,2012-10-10 04:00:00
11:30 AM,87.8,75.2,66,29.86,6.2,ENE,3.5,-,N/A,,Mostly Cloudy,60,2012-10-10 04:30:00
12:00 PM,87.8,71.6,58,29.86,6.2,NNE,2.3,-,N/A,,Mostly Cloudy,20,2012-10-10 05:00:00
12:30 PM,89.6,73.4,59,29.83,6.2,NNE,3.5,-,N/A,,Mostly Cloudy,20,2012-10-10 05:30:00
1:00 PM,90,73,49,29.83,6,NNE,6.9,,,,Scattered Clouds,30,2012-10-10 06:00:00
1:00 PM,89.6,73.4,59,29.83,6.2,NNE,6.9,-,N/A,,Mostly Cloudy,30,2012-10-10 06:00:00
1:30 PM,91.4,71.6,52,29.80,6.2,ENE,5.8,-,N/A,,Mostly Cloudy,60,2012-10-10 06:30:00
2:00 PM,91.4,68.0,46,29.80,6.2,NNE,6.9,-,N/A,,Mostly Cloudy,20,2012-10-10 07:00:00
2:30 PM,89.6,71.6,55,29.80,5.0,WNW,11.5,-,N/A,Thunderstorm,Thunderstorm,300,2012-10-10 07:30:00
3:00 PM,86.0,73.4,66,29.77,6.2,WNW,6.9,-,N/A,,Mostly Cloudy,300,2012-10-10 08:00:00
3:30 PM,87.8,73.4,62,29.77,6.2,WSW,6.9,-,N/A,,Mostly Cloudy,250,2012-10-10 08:30:00
4:00 PM,86.0,73.4,66,29.77,6.2,West,4.6,-,N/A,,Mostly Cloudy,260,2012-10-10 09:00:00
4:30 PM,86.0,73.4,66,29.77,6.2,West,3.5,-,N/A,,Mostly Cloudy,270,2012-10-10 09:30:00
5:00 PM,86.0,73.4,66,29.77,6.2,NNW,6.9,-,N/A,,Mostly Cloudy,330,2012-10-10 10:00:00
5:30 PM,86.0,73.4,66,29.77,6.2,NNW,2.3,-,N/A,,Mostly Cloudy,330,2012-10-10 10:30:00
6:00 PM,86.0,73.4,66,29.80,6.2,NNW,2.3,-,N/A,,Mostly Cloudy,330,2012-10-10 11:00:00
6:30 PM,84.2,73.4,70,29.80,6.2,NNW,2.3,-,N/A,,Mostly Cloudy,330,2012-10-10 11:30:00
7:00 PM,84,73,62,29.81,6,NNW,2.3,,,,Scattered Clouds,330,2012-10-10 12:00:00
7:00 PM,84.2,73.4,70,29.80,6.2,NNW,2.3,-,N/A,,Mostly Cloudy,330,2012-10-10 12:00:00
7:30 PM,84.2,71.6,66,29.83,6.2,West,2.3,-,N/A,,Mostly Cloudy,270,2012-10-10 12:30:00
8:00 PM,84.2,73.4,70,29.83,6.2,West,2.3,-,N/A,,Mostly Cloudy,270,2012-10-10 13:00:00
8:30 PM,84.2,73.4,70,29.83,6.2,Calm,Calm,-,N/A,,Mostly Cloudy,0,2012-10-10 13:30:00
9:00 PM,82.4,73.4,74,29.83,6.2,West,2.3,-,N/A,,Mostly Cloudy,270,2012-10-10 14:00:00
9:30 PM,80.6,73.4,79,29.83,6.2,SSW,2.3,-,N/A,,Mostly Cloudy,210,2012-10-10 14:30:00
10:00 PM,80.6,73.4,79,29.86,6.2,Calm,Calm,-,N/A,,Mostly Cloudy,0,2012-10-10 15:00:00
10:30 PM,80.6,73.4,79,29.86,6.2,ESE,3.5,-,N/A,,Mostly Cloudy,120,2012-10-10 15:30:00
11:00 PM,82.4,73.4,74,29.86,6.2,Calm,Calm,-,N/A,,Mostly Cloudy,0,2012-10-10 16:00:00
11:30 PM,82.4,73.4,74,29.86,6.2,Calm,Calm,-,N/A,,Mostly Cloudy,0,2012-10-10 16:30:00